Regional Weather Roundup
Issued by NWS Midland/Odessa, TX

Home | Current Version | Previous Version | Text Only | Print | Product List | Glossary On
Versions: 1 2 3 4 5 6 7 8 9 10 11 12 13 14 15 16 17 18 19 20 21 22 23 24 25 26 27 28 29 30 31 32 33 34 35 36 37 38 39 40 41 42 43 44 45 46 47 48 49 50
717
ASUS44 KMAF 260410
RWRMAF
MIDLAND AREA WEATHER ROUNDUP
NATIONAL WEATHER SERVICE MIDLAND TX
1100 PM CDT WED MAY 25 2016

...IN SOUTHWEST TEXAS AND SOUTHEAST NEW MEXICO...

CITY           SKY/WX    TMP DP  RH WIND       PRES   REMARKS
ALPINE         CLOUDY    73  46  38 SW6       30.11S
ANDREWS        FAIR      80  62  54 S17G25    29.96R
ARTESIA        CLEAR     73  28  19 W10       29.91R
BIG SPRING     PTCLDY    75  67  74 SE17G25   29.96R
CARLSBAD       PTCLDY    80  26  13 CALM      29.89R
DRYDEN           N/A     80  74  81 SE13      29.95R
FORT STOCKTON  CLOUDY    78  68  71 SE23G36   29.94F
GUAD PASS      NOT AVBL
HOBBS          CLOUDY    77  45  31 SE8       29.95F
MARFA          CLOUDY    68  43  40 SE8       30.09R
MIDLAND AIRPK  PTCLDY    81  67  64 S23G29    29.95R
MIDLAND INTL   MOCLDY    80  68  66 S20G30    29.93R
ODESSA         MOCLDY    80  67  64 S20G32    29.94R
PECOS          PTCLDY    86  52  31 S10       29.86S
PRESIDIO       FAIR      88  44  21 S18G24    29.95R
SEMINOLE       CLEAR     77  54  43 S6        29.96S
SNYDER           N/A     78  68  71 S15       29.94R
WINK           PTCLDY    79  67  66 MISG      29.89F
$$
...OTHER STATIONS IN TEXAS...

CITY           SKY/WX    TMP DP  RH WIND       PRES   REMARKS
ABILENE        PTCLDY    77  73  87 S18       29.94R
AMARILLO       CLEAR     70  31  23 S10       29.92R
AUSTIN         CLOUDY    79  74  84 S9        29.98R
BROWNSVILLE    CLOUDY    82  80  94 E10       30.00R
CORPUS CHRISTI CLOUDY    82  78  88 SE14      29.96F
DALLAS FTW     CLOUDY    82  73  74 S17G24    29.93R
DEL RIO        CLOUDY    82  76  81 SE9       29.94R HAZE
EL PASO        CLEAR     82   8   6 W22G31    29.96R
HOUSTON INT    CLOUDY    79  74  84 S9        30.03R
LUBBOCK        CLEAR     73  38  27 S10       29.92R
SAN ANGELO     CLOUDY    80  73  79 S16G23    29.93R
SAN ANTONIO    CLOUDY    80  75  84 SE18G26   29.98F
WACO           CLOUDY    80  73  79 S15       29.98R
WICHITA FALLS  NOT AVBL
$$
...OTHER LOCATIONS IN NEW MEXICO...

CITY           SKY/WX    TMP DP  RH WIND       PRES   REMARKS
ALAMAGORDO     CLEAR     73  14  10 SW7       29.97R
ALBUQUERQUE    PTCLDY    71  13  10 SW7       29.98R
CANNON AFB     CLEAR     69  23  18 W6        29.97R
CLOVIS         CLEAR     64  28  25 W8        29.96F
HOLLOMAN AFB   CLEAR     73  11   9 SW7       29.94R
ROSWELL        CLEAR     70  25  18 S6        29.91S
RUIDOSO          N/A     59  18  20 S6        30.15R
SANTA FE       CLOUDY    57  19  22 N9        30.02R
TRUTH OR CONSE CLEAR     76  14   9 SW17G24   29.97R
TUCUMCARI      CLEAR     66  21  18 SW12      29.92R
$$




USA.gov is the U.S. government's official web portal to all federal, state and local government web resources and services.